User: anonymous   Login
Location: Unspecified
(0.0000°N, 0.0000°E)
Time: 21:29:44
(UTC+00:00)
Language:

OBJECT E - Orbit

View from above orbital plane
View from above orbital plane
View from above satellite
View from above satellite

Ground track
Ground track

The orbit data is extracted from the following two-line orbital elements,

1 43666U 18083E   18344.43704330  .00001013  00000-0  54323-4 0  9995
2 43666  97.5354   5.0881 0016824 125.3468 342.2828 15.17173327  6431
Epoch (UTC): 10 December 2018 10:29:20
Eccentricity: 0.0016824
inclination: 97.5354°
perigee height: 503 km
apogee height: 526 km
right ascension of ascending node: 5.0881°
argument of perigee: 125.3468°
revolutions per day: 15.17173327
mean anomaly at epoch: 342.2828°
orbit number at epoch: 643

The dashed part of the orbit path shows where the satellite is in the earth's shadow,  

DLR